TimeMDT,TemperatureF,Dew PointF,Humidity,Sea Level PressureIn,VisibilityMPH,Wind Direction,Wind SpeedMPH,Gust SpeedMPH,PrecipitationIn,Events,Conditions,WindDirDegrees,DateUTC
12:53 AM,66.9,46.9,49,29.75,10.0,East,9.2,-,N/A,,Clear,100,2013-07-22 06:53:00
1:53 AM,60.1,46.0,60,29.76,10.0,SE,3.5,-,N/A,,Clear,140,2013-07-22 07:53:00
2:53 AM,60.1,46.0,60,29.76,10.0,SW,9.2,-,N/A,,Clear,220,2013-07-22 08:53:00
3:53 AM,55.0,45.0,69,29.77,10.0,SW,10.4,-,N/A,,Clear,230,2013-07-22 09:53:00
4:53 AM,52.0,45.0,77,29.78,10.0,SW,8.1,-,N/A,,Clear,230,2013-07-22 10:53:00
5:53 AM,50.0,45.0,83,29.79,10.0,WSW,6.9,-,N/A,,Clear,240,2013-07-22 11:53:00
6:53 AM,53.1,46.0,77,29.79,10.0,West,9.2,-,N/A,,Clear,280,2013-07-22 12:53:00
7:53 AM,62.1,48.9,62,29.81,10.0,West,9.2,-,N/A,,Clear,270,2013-07-22 13:53:00
8:53 AM,68.0,48.9,50,29.80,10.0,West,4.6,-,N/A,,Clear,260,2013-07-22 14:53:00
9:53 AM,73.9,46.0,37,29.81,10.0,West,6.9,-,N/A,,Clear,270,2013-07-22 15:53:00
10:53 AM,81.0,44.1,27,29.79,10.0,Variable,5.8,-,N/A,,Clear,0,2013-07-22 16:53:00
11:53 AM,84.9,35.1,17,29.78,10.0,NW,16.1,19.6,N/A,,Clear,320,2013-07-22 17:53:00
12:53 PM,87.1,36.0,16,29.79,10.0,WNW,15.0,19.6,N/A,,Clear,300,2013-07-22 18:53:00
1:53 PM,89.1,35.1,15,29.79,10.0,WNW,11.5,20.7,N/A,,Clear,300,2013-07-22 19:53:00
2:53 PM,90.0,32.0,13,29.79,10.0,NNW,13.8,19.6,N/A,,Clear,340,2013-07-22 20:53:00
3:53 PM,86.0,46.9,26,29.81,10.0,North,19.6,39.1,N/A,,Clear,360,2013-07-22 21:53:00
4:00 PM,86.0,44.6,23,29.91,10.0,North,25.3,35.7,N/A,,Clear,10,2013-07-22 22:00:00
4:53 PM,87.1,39.9,19,29.82,10.0,NNE,21.9,27.6,N/A,,Clear,30,2013-07-22 22:53:00
5:53 PM,86.0,39.9,20,29.84,10.0,NNE,17.3,24.2,N/A,,Clear,30,2013-07-22 23:53:00
6:53 PM,82.9,35.1,18,29.86,10.0,NNE,21.9,29.9,N/A,,Clear,30,2013-07-23 00:53:00
7:53 PM,77.0,39.9,26,29.87,10.0,NE,10.4,-,N/A,,Clear,40,2013-07-23 01:53:00
8:53 PM,72.0,41.0,33,29.87,10.0,East,5.8,-,N/A,,Partly Cloudy,90,2013-07-23 02:53:00
9:53 PM,66.0,39.9,38,29.88,10.0,South,3.5,-,N/A,,Clear,170,2013-07-23 03:53:00
10:53 PM,62.1,42.1,48,29.88,10.0,SSW,5.8,-,N/A,,Clear,210,2013-07-23 04:53:00
11:53 PM,59.0,41.0,51,29.89,10.0,WSW,4.6,-,N/A,,Clear,250,2013-07-23 05:53:00